Gainesville, TX

6:29 AM CDT on May 25, 2017 (GMT -0500)
Gainesville Municipal

Weather History for KGLE - January, 2013

Change the Weather History Date:

Wednesday, January 9, 2013

  Actual Average (KDTO) Record (KDTO)
Temperature  
Mean Temperature 48 °F -  
Max Temperature 51 °F 53 °F 78 °F (2009)
Min Temperature 44 °F 32 °F 19 °F (1999)
Degree Days  
Heating Degree Days 18    
Moisture  
Dew Point 48 °F    
Average Humidity 100    
Maximum Humidity 100    
Minimum Humidity 93    
Precipitation  
Precipitation 0.45 in - - ()
Sea Level Pressure  
Sea Level Pressure 30.12 in    
Wind  
Wind Speed 9 mph (NE)    
Max Wind Speed 21 mph    
Max Gust Speed 29 mph    
Visibility 6 miles    
Events Fog , Rain    
Averages and records for this station are not official NWS values.
T = Trace of Precipitation, MM = Missing Value Source: NWS Daily Summary

Daily Weather History Graph

Daily Weather History Graph

Search for Another Location

Airport or City:

Trip Planner

Search our weather history database for the weather conditions in past years. The results will help you decide how hot, cold, wet, or windy it might be!

Date:

Astronomy

Jan. 09, 2013 Rise Set
Actual Time 7:34 AM CST 5:38 PM CST
Civil Twilight 7:06 AM CST 6:05 PM CST
Nautical Twilight 6:35 AM CST 6:36 PM CST
Astronomical Twilight 6:05 AM CST 7:06 PM CST
Moon 5:14 AM CST (1/9) 3:41 PM CST (1/9)
Length of Visible Light 10h 58m
Length of Day
10h 04m
Waning Crescent, 6% of the Moon is Illuminated
Jan 9
Waning Crescent
Jan 11
New
Jan 18
First Quarter
Jan 26
Full
Feb 3
Last Quarter

Hourly Weather History & Observations

Time (CST) Temp. Windchill Dew Point Humidity Pressure Visibility Wind Dir Wind Speed Gust Speed Precip Events Conditions
12:15 AM 44.6 °F 39.7 °F 44.6 °F 100% 30.13 in 7.0 mi North 9.2 mph - N/A   Overcast
12:35 AM 44.6 °F 41.4 °F 44.6 °F 100% 30.13 in 7.0 mi North 5.8 mph - N/A   Overcast
12:55 AM 44.6 °F 41.4 °F 44.6 °F 100% 30.11 in 5.0 mi NE 5.8 mph - N/A   Light Drizzle
1:15 AM 44.6 °F 40.7 °F 44.6 °F 100% 30.10 in 5.0 mi NNE 6.9 mph - N/A   Light Drizzle
1:35 AM 44.6 °F 40.7 °F 44.6 °F 100% 30.12 in 4.0 mi North 6.9 mph - N/A   Overcast
1:55 AM 44.6 °F 40.2 °F 44.6 °F 100% 30.12 in 4.0 mi North 8.1 mph - N/A   Light Drizzle
2:15 AM 44.6 °F 40.2 °F 44.6 °F 100% 30.13 in 4.0 mi North 8.1 mph - N/A   Overcast
2:35 AM 44.6 °F 40.7 °F 44.6 °F 100% 30.13 in 3.0 mi North 6.9 mph - N/A   Overcast
2:55 AM 44.6 °F 39.7 °F 44.6 °F 100% 30.14 in 2.5 mi North 9.2 mph - N/A   Overcast
3:15 AM 44.6 °F 40.2 °F 44.6 °F 100% 30.13 in 1.2 mi NNE 8.1 mph - N/A   Overcast
3:35 AM 44.6 °F 41.4 °F 44.6 °F 100% 30.13 in 1.0 mi North 5.8 mph - N/A   Overcast
3:55 AM 44.6 °F 40.2 °F 44.6 °F 100% 30.13 in 1.8 mi North 8.1 mph - N/A   Overcast
4:15 AM 44.6 °F 40.7 °F 44.6 °F 100% 30.13 in 2.0 mi NE 6.9 mph - N/A   Overcast
4:35 AM 44.6 °F 40.2 °F 44.6 °F 100% 30.14 in 2.0 mi North 8.1 mph - N/A   Overcast
4:55 AM 44.6 °F 40.7 °F 44.6 °F 100% 30.15 in 1.8 mi NE 6.9 mph - N/A   Overcast
5:15 AM 44.6 °F 40.2 °F 44.6 °F 100% 30.15 in 1.2 mi NE 8.1 mph - N/A   Overcast
5:35 AM 44.6 °F 40.7 °F 44.6 °F 100% 30.15 in 0.8 mi NE 6.9 mph - N/A   Overcast
5:55 AM 44.6 °F 40.7 °F 44.6 °F 100% 30.17 in 0.8 mi North 6.9 mph - N/A   Overcast
6:15 AM 44.6 °F 40.2 °F 44.6 °F 100% 30.18 in 0.5 mi NNE 8.1 mph - N/A Fog Fog
6:35 AM 44.6 °F 41.4 °F 44.6 °F 100% 30.17 in 0.5 mi NNE 5.8 mph - N/A Fog Fog
6:55 AM 44.6 °F 40.7 °F 44.6 °F 100% 30.17 in 0.8 mi North 6.9 mph - N/A   Overcast
7:15 AM 44.6 °F 39.7 °F 44.6 °F 100% 30.18 in 0.8 mi North 9.2 mph - N/A   Overcast
7:35 AM 44.6 °F 39.7 °F 44.6 °F 100% 30.18 in 2.0 mi NNE 9.2 mph - N/A   Light Drizzle
7:55 AM 44.6 °F 39.7 °F 44.6 °F 100% 30.18 in 3.0 mi NNE 9.2 mph - N/A Rain Rain
8:15 AM 44.6 °F 40.2 °F 44.6 °F 100% 30.18 in 3.0 mi North 8.1 mph - 0.02 in Rain Rain
8:35 AM 44.6 °F 39.7 °F 44.6 °F 100% 30.19 in 4.0 mi NNE 9.2 mph - 0.05 in Rain Rain
8:55 AM 44.6 °F 40.2 °F 44.6 °F 100% 30.20 in 5.0 mi NNE 8.1 mph - 0.07 in Rain Rain
9:15 AM 44.6 °F 39.7 °F 44.6 °F 100% 30.21 in 5.0 mi NNE 9.2 mph - 0.02 in Rain Rain
9:35 AM 44.6 °F 39.7 °F 44.6 °F 100% 30.20 in 5.0 mi NNE 9.2 mph - 0.05 in Rain Rain
9:55 AM 46.4 °F 41.1 °F 44.6 °F 93% 30.19 in 5.0 mi North 11.5 mph - 0.07 in Rain Rain
10:15 AM 46.4 °F 41.9 °F 46.4 °F 100% 30.20 in 7.0 mi NNE 9.2 mph 16.1 mph 0.01 in Rain Light Rain
10:55 AM 46.4 °F 42.4 °F 46.4 °F 100% 30.19 in 7.0 mi NNE 8.1 mph - N/A Rain Light Rain
11:15 AM 48.2 °F - 48.2 °F 100% 30.19 in 7.0 mi NNE 10.4 mph - N/A Rain Light Rain
11:35 AM 50.0 °F - 50.0 °F 100% 30.17 in 10.0 mi NNE 11.5 mph - 0.03 in Rain Light Rain
11:55 AM 50.0 °F - 50.0 °F 100% 30.15 in 10.0 mi NNE 9.2 mph 17.3 mph N/A Rain Light Rain
12:15 PM 50.0 °F - 50.0 °F 100% 30.14 in 10.0 mi NNE 11.5 mph 17.3 mph 0.01 in Rain Light Rain
12:35 PM 50.0 °F - 50.0 °F 100% 30.11 in 10.0 mi NNE 12.7 mph - 0.02 in Rain Light Rain
12:55 PM 50.0 °F - 50.0 °F 100% 30.11 in 10.0 mi NNE 12.7 mph - 0.02 in Rain Light Rain
1:15 PM 50.0 °F - 50.0 °F 100% 30.11 in 10.0 mi NE 12.7 mph - N/A Rain Light Rain
1:35 PM 50.0 °F - 50.0 °F 100% 30.10 in 10.0 mi NE 15.0 mph 19.6 mph N/A   Light Drizzle
1:55 PM 50.0 °F - 50.0 °F 100% 30.08 in 7.0 mi NNE 15.0 mph 20.7 mph 0.02 in Rain Light Rain
2:15 PM 50.0 °F - 50.0 °F 100% 30.08 in 10.0 mi NNE 13.8 mph 21.9 mph N/A Rain Light Rain
2:35 PM 50.0 °F - 50.0 °F 100% 30.06 in 10.0 mi NNE 13.8 mph 19.6 mph N/A   Overcast
2:55 PM 50.0 °F - 50.0 °F 100% 30.07 in 10.0 mi NNE 11.5 mph 18.4 mph N/A   Light Drizzle
3:15 PM 50.0 °F - 50.0 °F 100% 30.09 in 10.0 mi NNE 9.2 mph 16.1 mph N/A   Light Drizzle
3:35 PM 50.0 °F - 50.0 °F 100% 30.09 in 10.0 mi NE 11.5 mph 18.4 mph N/A   Drizzle
3:55 PM 50.0 °F - 50.0 °F 100% 30.10 in 10.0 mi NE 11.5 mph - 0.01 in   Drizzle
4:15 PM 50.0 °F - 50.0 °F 100% 30.10 in 10.0 mi NE 10.4 mph - 0.01 in Rain Light Rain
4:35 PM 50.0 °F - 50.0 °F 100% 30.10 in 7.0 mi NE 9.2 mph - 0.03 in Rain Light Rain
4:55 PM 51.8 °F - 50.0 °F 94% 30.08 in 7.0 mi NNE 10.4 mph - 0.05 in Rain Light Rain
5:15 PM 51.8 °F - 51.8 °F 100% 30.08 in 7.0 mi NE 10.4 mph - 0.01 in   Drizzle
5:35 PM 51.8 °F - 51.8 °F 100% 30.08 in 7.0 mi ENE 15.0 mph - 0.02 in Rain Light Rain
5:55 PM 51.8 °F - 51.8 °F 100% 30.07 in 5.0 mi ENE 16.1 mph - 0.03 in Rain Light Rain
6:15 PM 51.8 °F - 51.8 °F 100% 30.07 in 10.0 mi ENE 16.1 mph 20.7 mph 0.02 in Rain Light Rain
6:35 PM 51.8 °F - 51.8 °F 100% 30.04 in 10.0 mi ENE 19.6 mph 27.6 mph 0.03 in Rain Light Rain
6:55 PM - - - N/A% 30.02 in 10.0 mi ENE 20.7 mph 28.8 mph 0.04 in   Light Drizzle
7:15 PM 51.8 °F - 51.8 °F 100% 30.06 in 10.0 mi ENE 13.8 mph 25.3 mph N/A   Light Drizzle
7:35 PM 51.8 °F - 51.8 °F 100% 30.05 in 10.0 mi NE 19.6 mph - N/A   Overcast
7:55 PM 51.8 °F - 51.8 °F 100% 30.06 in 10.0 mi ENE 18.4 mph 24.2 mph N/A   Overcast
8:15 PM 51.8 °F - 51.8 °F 100% 30.06 in 10.0 mi ENE 15.0 mph 20.7 mph N/A   Overcast
8:35 PM 51.8 °F - 51.8 °F 100% 30.07 in 10.0 mi East 12.7 mph 20.7 mph N/A   Overcast
8:55 PM 51.8 °F - 51.8 °F 100% 30.07 in 10.0 mi East 15.0 mph 18.4 mph N/A   Overcast
9:15 PM 51.8 °F - 51.8 °F 100% 30.07 in 10.0 mi East 11.5 mph - N/A   Overcast
9:35 PM 51.8 °F - 51.8 °F 100% 30.07 in 10.0 mi East 13.8 mph 17.3 mph N/A   Overcast
9:55 PM 51.8 °F - 51.8 °F 100% 30.08 in 10.0 mi East 8.1 mph 12.7 mph N/A   Overcast
10:15 PM 51.8 °F - 51.8 °F 100% 30.08 in 5.0 mi East 12.7 mph - 0.03 in Rain Rain
10:35 PM 51.8 °F - 51.8 °F 100% 30.07 in 4.0 mi East 9.2 mph - 0.05 in Rain Rain
10:55 PM 51.8 °F - 50.0 °F 94% 30.07 in 4.0 mi East 9.2 mph - 0.09 in Rain Light Rain
11:15 PM 51.8 °F - 50.0 °F 94% 30.06 in 10.0 mi East 11.5 mph - 0.01 in Rain Light Rain
11:35 PM 51.8 °F - 50.0 °F 94% 30.05 in 10.0 mi East 9.2 mph - 0.01 in   Overcast
11:55 PM 51.8 °F - 51.8 °F 100% 30.05 in 10.0 mi East 9.2 mph - 0.01 in   Overcast